Location: Bacea
(45.9500°N, 22.6667°E)
Time: 09:28:54
(UTC+00:00)

Cosmos 1174 - Pass Details

Date: 16 October 2021
Orbit: 373 x 1139 km, 66.1° (Epoch: 07 December)

Event Time Altitude Azimuth Distance (km) Brightness Sun altitude
Rises 17:17:49 0° 222° (SW) 2,461 7.7 -17.5°
Reaches altitude 10° 17:20:03 10° 227° (SW) 1,511 6.6 -17.9°
Maximum altitude 17:23:15 54° 306° (NW) 485 3.8 -18.4°
Enters shadow 17:24:37 27° 12° (NNE) 770 4.5 -18.7°
